San Antonio Stinson, TX

12:22 PM CDT on September 26, 2017 (GMT -0500)
Stinson Municipal

Weather History for KSSF - December, 2012

Change the Weather History Date:

Thursday, December 20, 2012

  Actual Average Record
Temperature  
Mean Temperature 52 °F -  
Max Temperature 69 °F 60 °F 79 °F (2007)
Min Temperature 33 °F 37 °F 30 °F (2000)
Degree Days  
Heating Degree Days 13    
Growing Degree Days 2 (Base 50)    
Moisture  
Dew Point 9 °F    
Average Humidity 22    
Maximum Humidity 52    
Minimum Humidity 9    
Precipitation  
Precipitation 0.00 in - - ()
Sea Level Pressure  
Sea Level Pressure 30.32 in    
Wind  
Wind Speed 15 mph (NNW)    
Max Wind Speed 24 mph    
Max Gust Speed 39 mph    
Visibility 9 miles    
Events      
Averages and records for this station are not official NWS values.
T = Trace of Precipitation, MM = Missing Value Source: NWS Daily Summary

Daily Weather History Graph

Daily Weather History Graph

Search for Another Location

Airport or City:

Trip Planner

Search our weather history database for the weather conditions in past years. The results will help you decide how hot, cold, wet, or windy it might be!

Date:

Astronomy

Dec. 20, 2012 Rise Set
Actual Time 7:23 AM CST 5:39 PM CST
Civil Twilight 6:57 AM CST 6:05 PM CST
Nautical Twilight 6:27 AM CST 6:35 PM CST
Astronomical Twilight 5:58 AM CST 7:04 PM CST
Moon 12:37 PM CST (12/20) 12:36 AM CST (12/20)
Length of Visible Light 11h 08m
Length of Day
10h 15m
First Quarter, 55% of the Moon is Illuminated
Dec 20
First Quarter
Dec 28
Full
Jan 4
Last Quarter
Jan 11
New
Jan 18
First Quarter

Hourly Weather History & Observations

Time (CST) Temp. Windchill Dew Point Humidity Pressure Visibility Wind Dir Wind Speed Gust Speed Precip Events Conditions
12:53 AM 69.1 °F - 28.0 °F 22% 29.89 in 4.0 mi NNW 10.4 mph - N/A   Haze
1:53 AM 64.0 °F - 9.0 °F 12% 29.96 in 5.0 mi NNW 21.9 mph 35.7 mph N/A   Haze
2:53 AM 62.1 °F - 7.0 °F 11% 30.01 in 5.0 mi NNW 23.0 mph 34.5 mph N/A   Haze
3:53 AM 57.0 °F - 14.0 °F 18% 30.06 in 7.0 mi NNW 24.2 mph 39.1 mph N/A   Overcast
4:53 AM 51.1 °F - 12.9 °F 22% 30.13 in 10.0 mi NNW 24.2 mph 38.0 mph N/A   Scattered Clouds
5:53 AM 46.9 °F - 15.1 °F 28% 30.19 in 10.0 mi North 12.7 mph 19.6 mph N/A   Clear
6:53 AM 45.0 °F 37.4 °F 15.1 °F 30% 30.25 in 10.0 mi NNW 18.4 mph 26.5 mph N/A   Clear
7:53 AM 44.1 °F 37.4 °F 16.0 °F 32% 30.32 in 10.0 mi NNW 13.8 mph 25.3 mph N/A   Clear
8:53 AM 45.0 °F 38.2 °F 16.0 °F 31% 30.38 in 10.0 mi NNW 15.0 mph 27.6 mph N/A   Clear
9:53 AM 48.9 °F - 12.9 °F 24% 30.41 in 10.0 mi North 16.1 mph 25.3 mph N/A   Clear
10:53 AM 51.1 °F - 7.0 °F 17% 30.43 in 10.0 mi North 18.4 mph 38.0 mph N/A   Clear
11:53 AM 53.1 °F - 3.0 °F 13% 30.42 in 10.0 mi North 20.7 mph 28.8 mph N/A   Clear
12:53 PM 55.9 °F - 1.9 °F 11% 30.39 in 10.0 mi North 13.8 mph 26.5 mph N/A   Clear
1:53 PM 55.9 °F - -2.9 °F 9% 30.38 in 10.0 mi NNW 21.9 mph 27.6 mph N/A   Clear
2:53 PM 57.0 °F - -2.9 °F 9% 30.38 in 10.0 mi NNW 19.6 mph 26.5 mph N/A   Clear
3:53 PM 55.9 °F - -2.0 °F 9% 30.39 in 10.0 mi NNW 12.7 mph 24.2 mph N/A   Clear
4:53 PM 55.0 °F - -0.9 °F 10% 30.40 in 10.0 mi NNW 9.2 mph - N/A   Clear
5:53 PM 53.1 °F - -0.0 °F 11% 30.41 in 10.0 mi NW 6.9 mph - N/A   Clear
6:53 PM 50.0 °F - 3.0 °F 15% 30.43 in 10.0 mi NNW 4.6 mph - N/A   Clear
7:53 PM 46.9 °F - 6.1 °F 19% 30.44 in 10.0 mi Calm Calm - N/A   Clear
8:53 PM 42.1 °F 40.2 °F 12.0 °F 29% 30.47 in 10.0 mi WNW 3.5 mph - N/A   Clear
9:53 PM 36.0 °F 32.1 °F 15.1 °F 43% 30.49 in 10.0 mi WNW 4.6 mph - N/A   Clear
10:53 PM 35.1 °F - 16.0 °F 46% 30.50 in 10.0 mi Calm Calm - N/A   Clear
11:53 PM 33.1 °F - 17.1 °F 52% 30.51 in 10.0 mi Calm Calm - N/A   Clear